[[{"header":{"parameterUnit":"m.s-1","parameterCategory":1,"la1":30.2991,"la2":30.254,"lo1":-89.0895,"lo2":-89.0444,"dy":0.0017,"dx":0.0017,"nx":28,"ny":28,"refTime":"2024-06-24T03:00:00:Z","depth":0,"parameterNumber":2,"parameterNumberName":"U-component_of_WINDS"},"data":[0,0,0,0,0,0,0,0,0,0,0,0,0,0,0,0,0,0,0,0,0,0,0,0,0,0,0,0,0,0,0,0,0,0,0,0,0,0,0,0,0,0,0,0,0,0,0,0,0,0,0,0,0,0,0,0,0,0,4.1286,4.1288,0,4.1421,4.1423,4.1424,4.1348,4.1344,4.134,4.1336,4.1478,4.1485,4.1492,0,0,0,0,0,0,0,0,0,0,0,0,0,4.0964,4.097,4.1286,4.1288,4.129,4.1421,4.1423,4.1425,4.1348,4.1344,4.1339,4.1335,4.1476,4.1484,4.1493,0,0,0,0,0,0,0,0,0,0,0,0,0,4.1102,4.0972,4.1286,4.1267,4.1267,4.1421,4.1423,4.1425,4.1349,4.1344,4.1338,4.1333,4.1473,4.1483,4.1494,4.1675,0,0,4.1527,4.1532,0,0,0,0,0,0,0,0,4.1094,4.1114,4.1268,4.1269,4.1269,4.1362,4.1361,4.1509,4.1351,4.1318,4.1336,4.133,4.1444,4.1457,4.1495,4.1681,4.1688,4.1528,4.1535,4.154,4.1543,0,0,0,0,0,0,0,4.1085,4.1108,4.134,4.1271,4.1271,4.1253,4.1266,4.1389,4.1411,4.132,4.1315,4.1332,4.1443,4.1484,4.1498,4.169,4.1528,4.1538,4.1545,4.1549,4.2029,4.2035,0,0,0,0,0,0,4.1076,4.11,4.1335,4.1344,4.1166,4.1263,4.1278,4.1338,4.141,4.1415,4.1337,4.1328,4.1469,4.1485,4.1502,4.1717,4.154,4.155,4.1556,4.2023,4.2031,4.2037,0,0,0,0,0,0,4.107,4.1098,4.133,4.1221,4.1249,4.1275,4.1342,4.1343,4.1384,4.1422,4.1426,4.1375,4.1465,4.1487,4.1632,4.1721,4.1555,4.1565,4.2016,4.2025,4.2034,4.2148,0,0,0,0,0,0,4.1061,4.1096,4.1165,4.1223,4.1255,4.1457,4.1348,4.135,4.1403,4.1393,4.1459,4.1464,4.1462,4.1616,4.1643,4.1733,4.1573,4.2008,4.202,4.2031,4.2137,4.216,4.2181,0,0,0,0,0,4.1049,4.1193,4.1169,4.1197,4.1341,4.1462,4.1481,4.1474,4.1411,4.148,4.1504,4.1462,4.1707,4.1631,4.1661,4.1756,4.2002,4.2017,4.203,4.2127,4.2156,4.218,0,0,0,0,0,0,4.1146,4.12,4.1174,4.134,4.1397,4.1449,4.1536,4.1506,4.1583,4.157,4.156,4.1575,4.1726,4.1755,4.167,4.1933,4.1845,4.1865,4.1908,4.1936,4.1957,4.1947,4.1582,0,0,0,0,0,4.1186,4.128,4.1322,4.1465,4.1494,4.1511,4.1563,4.1553,4.1612,4.1636,4.1671,4.173,4.182,4.188,4.1965,4.2141,4.2153,4.2221,4.2243,4.226,4.2278,4.2371,4.2401,4.2083,4.2083,4.2083,0,0,4.1271,4.1312,4.1372,4.1485,4.1528,4.1624,4.1531,4.1638,4.171,4.1653,4.179,4.1818,4.1884,4.2045,4.2117,4.2074,4.2368,4.2278,4.2292,4.23,4.2389,4.2419,4.2445,4.2093,4.2091,4.2089,0,0,4.1475,4.1516,4.1638,4.1682,4.1748,4.1757,4.1787,4.1843,4.1859,4.1997,4.1955,4.2041,4.2197,4.2245,4.229,4.251,4.2474,4.2538,4.2653,4.2744,4.2769,4.2791,4.2867,4.2895,4.2556,4.2556,4.2556,0,4.1572,4.1715,4.1705,4.1814,4.1864,4.1816,4.1939,4.1983,4.2074,4.211,4.206,4.2253,4.2294,4.2464,4.2518,4.2557,4.2589,4.253,4.2766,4.2788,4.2808,4.2881,4.2911,4.2563,4.2563,4.2562,4.2561,0,4.1831,4.1931,4.2022,4.2108,4.2169,4.2285,4.2292,4.2356,4.234,4.2355,4.2496,4.2543,4.2636,4.2676,4.2663,4.2844,4.2815,4.2766,4.2677,4.2846,4.2914,4.2942,4.2574,4.2571,4.2569,4.2567,0,0,4.2099,4.2177,4.221,4.2248,4.2316,4.2394,4.2507,4.2596,4.265,4.2714,4.2809,4.2941,4.2895,4.2946,4.2938,4.3018,4.3187,4.2959,4.296,4.2998,4.3388,4.3423,4.3456,4.3164,4.317,4.3174,4.3382,0,4.2305,4.2502,4.2495,4.2679,4.277,4.2725,4.2824,4.2876,4.2893,4.2974,4.2993,4.3086,4.3019,4.3049,4.3127,4.315,4.3265,4.3136,4.3252,4.3256,4.3235,4.3492,4.353,4.3723,4.3408,4.3413,4.3416,0,4.2572,4.2643,4.2835,4.2888,4.2926,4.3015,4.3095,4.3173,4.3231,4.3238,4.3294,4.3273,4.3388,4.3296,4.3454,4.3366,4.3413,4.3432,4.3439,4.3449,4.3345,4.3506,4.3785,4.3813,4.3459,4.3455,4.3452,0,4.2746,4.289,4.3022,4.3057,4.3122,4.3185,4.3215,4.3268,4.3322,4.3393,4.3427,4.3511,4.3557,4.3623,4.3625,4.3558,4.3784,4.3693,4.3792,4.3792,4.384,4.3837,4.4129,4.3874,4.3874,4.3873,4.3873,0,4.2976,4.3095,4.3101,4.3183,4.3314,4.3306,4.3436,4.3461,4.3508,4.3593,4.3561,4.3642,4.364,4.3723,4.3726,4.3855,4.3877,4.3885,4.3884,4.3887,4.3886,4.3917,4.3903,4.3881,4.3879,4.3878,4.3876,0,4.3192,4.3201,4.3342,4.3392,4.3407,4.3502,4.3544,4.3622,4.3635,4.3744,4.3769,4.3791,4.3886,4.3895,4.4007,4.4008,4.4164,4.415,4.4144,4.4141,4.4239,4.4229,4.4559,4.4601,4.4321,4.4324,4.4326,0,4.3337,4.3427,4.3486,4.354,4.3573,4.3661,4.3715,4.371,4.3767,4.384,4.3909,4.4001,4.4074,4.4229,4.4255,4.434,4.4326,4.4436,4.4338,4.4338,4.4325,4.4319,4.4327,4.4454,4.4457,4.446,4.4462,0,4.3593,4.3593,4.3671,4.3751,4.3815,4.3878,4.3937,4.3984,4.3986,4.4052,4.4148,4.4205,4.4317,4.4409,4.4492,4.4523,4.4494,4.4493,4.452,4.4523,4.4515,4.4518,4.4193,4.4485,4.4482,4.4481,4.448,4.4479,4.3777,4.3854,4.3906,4.3994,4.4037,4.4093,4.4167,4.4189,4.4269,4.4359,4.4352,4.4458,4.4513,4.4621,4.4659,4.4742,4.4705,4.4745,4.4755,4.4764,4.4773,4.4503,4.4758,4.4757,4.4756,4.4756,4.4755,0,4.403,4.4061,4.4142,4.4223,4.4292,4.4257,4.432,4.438,4.4473,4.4526,4.4598,4.4708,4.4796,4.4829,4.4915,4.4975,4.4964,4.4998,4.4993,4.5,4.4802,4.4769,4.5006,4.5006,4.5006,4.5006,4.5006,4.5006,4.4169,4.4297,4.4302,4.4451,4.4481,4.4584,4.4622,4.4673,4.4715,4.4839,4.4911,4.4931,4.4976,4.5065,4.5144,4.5151,4.5184,4.5224,4.5225,4.504,4.5014,4.499,4.4959,4.5231,4.5232,4.5416,4.5417,4.5419]},{"header":{"parameterUnit":"m.s-1","parameterCategory":1,"la1":30.2991,"la2":30.254,"lo1":-89.0895,"lo2":-89.0444,"dy":0.0017,"dx":0.0017,"nx":28,"ny":28,"refTime":"2024-06-24T03:00:00:Z","depth":0,"parameterNumber":3,"parameterNumberName":"V-component_of_WINDS"},"data":[0,0,0,0,0,0,0,0,0,0,0,0,0,0,0,0,0,0,0,0,0,0,0,0,0,0,0,0,0,0,0,0,0,0,0,0,0,0,0,0,0,0,0,0,0,0,0,0,0,0,0,0,0,0,0,0,0,0,1.5423,1.5424,0,1.5437,1.5437,1.5438,1.5384,1.5382,1.5381,1.5379,1.5394,1.5396,1.5398,0,0,0,0,0,0,0,0,0,0,0,0,0,1.535,1.5352,1.5423,1.5424,1.5424,1.5437,1.5437,1.5438,1.5384,1.5382,1.538,1.5378,1.5393,1.5395,1.5398,0,0,0,0,0,0,0,0,0,0,0,0,0,1.5375,1.5352,1.5423,1.5399,1.5396,1.5437,1.5437,1.5438,1.5384,1.5382,1.538,1.5377,1.5392,1.5395,1.5398,1.5463,0,0,1.5407,1.5408,0,0,0,0,0,0,0,0,1.5374,1.5378,1.5402,1.54,1.5398,1.5406,1.5417,1.5446,1.5385,1.5389,1.5379,1.5376,1.54,1.5402,1.541,1.5464,1.5465,1.5407,1.5409,1.541,1.5411,0,0,0,0,0,0,0,1.5372,1.5377,1.5429,1.5402,1.54,1.5387,1.5388,1.5422,1.5408,1.5388,1.5385,1.5387,1.5398,1.5407,1.541,1.5465,1.5407,1.5409,1.5411,1.5412,1.5572,1.5575,0,0,0,0,0,0,1.5373,1.5376,1.5428,1.5429,1.538,1.539,1.5391,1.5406,1.5407,1.5405,1.5389,1.5384,1.5404,1.5407,1.541,1.5486,1.541,1.5412,1.5414,1.557,1.5573,1.5576,0,0,0,0,0,0,1.5372,1.5379,1.5428,1.5401,1.5407,1.5394,1.5411,1.5408,1.5416,1.5408,1.5405,1.5401,1.5402,1.5406,1.545,1.5486,1.5414,1.5416,1.5567,1.5571,1.5574,1.5639,0,0,0,0,0,0,1.537,1.5379,1.5403,1.5402,1.5408,1.5468,1.5413,1.541,1.5421,1.5416,1.5418,1.5416,1.54,1.5446,1.5453,1.5489,1.5418,1.5563,1.5568,1.5573,1.5634,1.5645,1.5654,0,0,0,0,0,1.5368,1.5422,1.5405,1.5412,1.5439,1.547,1.5474,1.5454,1.5425,1.5449,1.5443,1.5416,1.5481,1.5451,1.5458,1.5495,1.5561,1.5567,1.5573,1.5629,1.5643,1.5654,0,0,0,0,0,0,1.5428,1.5421,1.5403,1.5458,1.5465,1.5461,1.5492,1.5469,1.5485,1.5479,1.5455,1.5456,1.5504,1.5504,1.5471,1.5558,1.5516,1.5523,1.5556,1.5569,1.5579,1.5578,1.5421,0,0,0,0,0,1.5447,1.5473,1.5466,1.5515,1.5519,1.5505,1.5518,1.5502,1.5509,1.5512,1.5509,1.5517,1.5539,1.5554,1.5574,1.5633,1.5633,1.5662,1.5672,1.5681,1.5688,1.5718,1.5731,1.5594,1.5594,1.5594,0,0,1.5488,1.5487,1.5505,1.5527,1.5531,1.5558,1.5508,1.5539,1.5559,1.5517,1.5558,1.5556,1.5563,1.5615,1.5638,1.5616,1.5725,1.5688,1.5695,1.5697,1.5726,1.5739,1.575,1.5598,1.5598,1.5597,0,0,1.5576,1.5578,1.5619,1.5624,1.563,1.562,1.563,1.5629,1.5626,1.5667,1.5636,1.5659,1.5697,1.5703,1.5711,1.58,1.5776,1.5808,1.5861,1.5891,1.5902,1.5912,1.5943,1.5955,1.5814,1.5814,1.5815,0,1.5626,1.5666,1.5643,1.5676,1.5686,1.5648,1.5689,1.5695,1.5708,1.5715,1.5691,1.5738,1.574,1.5793,1.5814,1.5822,1.5832,1.5807,1.5902,1.5912,1.592,1.595,1.5962,1.5818,1.5818,1.5817,1.5817,0,1.5726,1.5754,1.5787,1.5799,1.5813,1.585,1.5833,1.5849,1.5832,1.5825,1.5866,1.5867,1.5886,1.5897,1.5881,1.5947,1.5934,1.5907,1.5864,1.5937,1.5965,1.5976,1.5824,1.5822,1.5821,1.582,0,0,1.5854,1.5852,1.5864,1.5869,1.5873,1.5894,1.5929,1.5947,1.5961,1.5971,1.5999,1.6032,1.6006,1.6016,1.6,1.6026,1.6096,1.5995,1.5995,1.6014,1.6169,1.619,1.6203,1.608,1.6082,1.6083,1.6168,0,1.594,1.5999,1.5979,1.604,1.6065,1.6029,1.6059,1.6064,1.6058,1.6078,1.6071,1.6095,1.6059,1.6064,1.6089,1.6083,1.6127,1.6076,1.6106,1.6107,1.6106,1.6218,1.624,1.632,1.6179,1.6181,1.6182,0,1.6048,1.6062,1.6124,1.6123,1.6133,1.616,1.6175,1.6195,1.62,1.6193,1.6203,1.6181,1.6215,1.6171,1.6217,1.6183,1.6194,1.6192,1.6195,1.6197,1.615,1.6223,1.6345,1.6358,1.6199,1.6198,1.6196,0,1.6134,1.6168,1.621,1.6215,1.6214,1.6234,1.6235,1.6237,1.6249,1.6262,1.6269,1.6286,1.6295,1.6308,1.6291,1.6262,1.634,1.6295,1.6335,1.6336,1.6354,1.6353,1.648,1.6361,1.6361,1.636,1.636,0,1.6233,1.6273,1.6248,1.6274,1.6317,1.6294,1.6337,1.6334,1.6336,1.636,1.633,1.6354,1.633,1.6351,1.6338,1.6377,1.6382,1.6377,1.6373,1.638,1.6381,1.6387,1.6381,1.6363,1.6363,1.6362,1.6362,0,1.6337,1.6322,1.6365,1.636,1.636,1.6392,1.6388,1.6411,1.6402,1.6433,1.6439,1.6425,1.6448,1.6432,1.6456,1.6447,1.6499,1.6487,1.6498,1.6494,1.6535,1.6532,1.6671,1.6688,1.6558,1.6559,1.656,0,1.64,1.643,1.6428,1.6442,1.6445,1.6467,1.6479,1.6457,1.6471,1.6478,1.65,1.6521,1.6536,1.6575,1.6567,1.6584,1.6573,1.662,1.6575,1.6581,1.6573,1.6572,1.6574,1.6629,1.6631,1.6632,1.6633,0,1.6515,1.6506,1.6524,1.6539,1.6554,1.6565,1.6574,1.6587,1.6565,1.6581,1.6604,1.6616,1.6639,1.666,1.6674,1.6675,1.6651,1.6647,1.6657,1.6665,1.6669,1.6667,1.6522,1.6644,1.6643,1.6642,1.6642,1.6641,1.6601,1.6625,1.6627,1.6648,1.6652,1.6661,1.6682,1.6676,1.6695,1.6712,1.6697,1.6725,1.6728,1.6745,1.6748,1.6769,1.675,1.6765,1.6769,1.6773,1.6778,1.6666,1.6772,1.6772,1.6771,1.6771,1.6771,0,1.6714,1.6713,1.6732,1.6745,1.6762,1.6737,1.6745,1.676,1.6785,1.679,1.6805,1.6831,1.6851,1.6844,1.6861,1.688,1.6869,1.6885,1.6883,1.6884,1.6795,1.6784,1.6893,1.6893,1.6893,1.6893,1.6893,1.6893,1.6774,1.6814,1.6805,1.6846,1.6846,1.6872,1.6879,1.6886,1.689,1.6921,1.6937,1.6932,1.6932,1.6949,1.6966,1.6964,1.6971,1.6992,1.6985,1.6902,1.689,1.6879,1.6869,1.6994,1.6994,1.7072,1.7073,1.7074]}]]